Regional Weather Roundup
Issued by NWS

Home | Current Version | Previous Version | Graphics & Text | Print | Product List | Glossary On
Versions: 1 2 3 4 5 6 7 8 9 10 11 12 13 14 15 16 17 18 19 20 21 22 23 24 25 26 27 28 29 30 31 32 33 34 35 36 37 38 39 40 41 42 43 44 45 46 47 48 49 50
000
ASUS43 KIND 250409
RWRIN

WEATHER ROUNDUP FOR INDIANA
NATIONAL WEATHER SERVICE INDIANAPOLIS IN
1200 AM EDT FRI MAY 25 2018

NOTE: "FAIR" INDICATES FEW OR NO CLOUDS BELOW 12,000 FEET WITH NO
SIGNIFICANT WEATHER AND/OR OBSTRUCTIONS TO VISIBILITY.

* - STATION DOES NOT REPORT WEATHER SUCH AS PRECIPITATION OR FOG.

+ - STATION NOT QUALITY CONTROLLED BY THE NATIONAL WEATHER SERVICE.
    USE DATA WITH CAUTION...ESPECIALLY DEWPOINT AND RELATIVE
    HUMIDITY OBSERVATIONS.

INZ001>003-010>013-019-020-250500-
NORTHWEST INDIANA

CITY           SKY/WX    TMP DP  RH WIND       PRES   REMARKS
GARY /AIRPORT/ FAIR      69  54  58 SE5       30.05S
KNOX *+        FAIR      64  55  72 SE3       30.06S
LA PORTE +     FAIR      66  56  69 CALM      30.07F
MICHIGAN CITY+ FAIR      64  50  59 CALM      30.06S
MONTICELLO +   FAIR      64  52  65 CALM      30.06S
RENSSELAER +   FAIR      72  36  26 SE3       30.06F
VALPARAISO     FAIR      70  52  52 SE7       30.06F

$$

LMZ046-743>745-250500-
SOUTHERN LAKE MICHIGAN

STATION/POSITION TIME  TEMP    WIND        PRES    WAVE
                       AIR SEA DIR/SP/G            HT
                 (UTC) (F)     (DEG/KT/KT) (MB)    (FT)
BURNS HARBOR     0340   76     160/  4/ 10 1017.6F
MICHIGAN CITY    0340   72     130/  8/  8   N/A
5NW MICH CITY    0400   66 60  150/  6/  6   N/A     0

$$

INZ004-005-014>016-021>024-250500-
NORTH CENTRAL INDIANA

CITY           SKY/WX    TMP DP  RH WIND       PRES   REMARKS
GOSHEN         FAIR      62  54  74 CALM      30.08S
LOGANSPORT +   FAIR      68  46  45 E3        30.08S
PERU/GRISSOM   FAIR      68  51  53 SE3       30.07S
ROCHESTER +    FAIR      64  54  68 CALM      30.08S
SOUTH BEND     FAIR      63  53  70 CALM      30.07F
WARSAW +       FAIR      59  54  82 CALM      30.09R

$$

INZ006>009-017-018-025>027-250500-
NORTHEAST INDIANA

CITY           SKY/WX    TMP DP  RH WIND       PRES   REMARKS
ANGOLA *+      FAIR      59  54  82 CALM      30.09S
AUBURN +       FAIR      61  54  77 CALM      30.10R
FORT WAYNE     FAIR      63  52  67 CALM      30.09S
HUNTINGTON +   FAIR      61  58  90 CALM      30.08S
KENDALLVILLE + FAIR     N/A N/A N/A CALM      30.10S

$$

INZ028-029-035-036-043>045-051>053-250500-
WEST CENTRAL INDIANA

CITY           SKY/WX    TMP DP  RH WIND       PRES   REMARKS
CRAWFORDSVL +  FAIR      61  54  79 CALM      30.08R
GREENCASTLE +  FAIR      63  52  67 CALM      30.09R
LAFAYETTE      FAIR      62  57  83 CALM      30.06S
TERRE HAUTE    FAIR      64  56  75 NE3       30.07S

$$

INZ030>032-037>040-046>048-054>057-064-065-250500-
CENTRAL INDIANA

CITY           SKY/WX    TMP DP  RH WIND       PRES   REMARKS
ANDERSON       FAIR      62  53  70 CALM      30.09F
FISHERS *+     FAIR      64  55  72 CALM      30.09
FRANKFORT +    FAIR      67  52  58 CALM      30.10R
GREENWOOD *+   FAIR      65  54  67 CALM      30.09R
INDIANAPOLIS   FAIR      72  52  49 CALM      30.07S
-EAGLE CREEK   FAIR      67  56  67 CALM      30.07S
KOKOMO +       FAIR      65  53  65 S5        30.09S
MARION +       FAIR      64  53  67 CALM      30.09S
MT COMFORT *+  FAIR      64  55  72 SE3       30.09S
SHELBYVILLE    FAIR      66  55  67 SE3       30.07F
ZIONSVILLE +   FAIR      62  56  82 CALM      30.09S

$$

INZ033-034-041-042-049-050-058-059-250500-
EAST CENTRAL INDIANA

CITY           SKY/WX    TMP DP  RH WIND       PRES   REMARKS
MUNCIE         FAIR      66  53  63 SE3       30.09S
RICHMOND +     FAIR      61  59  94 E3        30.11S

$$

INZ060-061-067>069-081>083-085>088-250500-
SOUTHWEST INDIANA

CITY           SKY/WX    TMP DP  RH WIND       PRES   REMARKS
EVANSVILLE     FAIR      68  61  78 CALM      30.06R
HUNTINGBURG +  FAIR      65  58  78 CALM      30.07R
WASHINGTON +   FAIR      67  53  62 CALM      30.06S

$$

INZ062-063-066-070>080-084-089>092-250500-
SOUTH CENTRAL AND SOUTHEAST INDIANA

CITY           SKY/WX    TMP DP  RH WIND       PRES   REMARKS
BATESVILLE +   CLEAR     61  59  94 CALM      30.09S
BEDFORD +      FAIR      64  55  72 CALM      30.07S
BLOOMINGTON    FAIR      63  58  83 CALM      30.08S
FRENCH LICK *+ FAIR      68  46  45 CALM      30.08S
MADISON *+     FAIR      63  59  88 CALM      30.10S
NORTH VERNON + FAIR      63  59  88 CALM      30.08S
SEYMOUR +      FAIR      66  57  72 CALM      30.07S

$$





USA.gov is the U.S. government's official web portal to all federal, state and local government web resources and services.